This is the latest recevied weather packets stored in our database for station/object EUGENE. If no packets are shown the sender has not sent any weather packets the latest 10 day(s).
| Time | Temp. | Humidity | Pressure | Rain* | Wind** | Luminosity | Snow |
|---|---|---|---|---|---|---|---|
| 1777739226 | 13.33° C | 81% | 1015.7 hPa | 0 mm | - | - | - |
| 1777738327 | 12.78° C | 83% | 1015.6 hPa | 0 mm | - | - | - |
| 1777737427 | 12.78° C | 83% | 1015.7 hPa | 0 mm | - | - | - |
| 1777736526 | 12.78° C | 84% | 1015.8 hPa | 0 mm | - | - | - |
| 1777735626 | 12.22° C | 85% | 1015.7 hPa | 0 mm | - | - | - |
| 1777734726 | 11.67° C | 88% | 1015.7 hPa | 0 mm | - | - | - |
| 1777733826 | 11.11° C | 88% | 1016.1 hPa | 0 mm | - | - | - |
| 1777732926 | 11.11° C | 88% | 1016.1 hPa | 0 mm | - | - | - |
| 1777732026 | 10.56° C | 89% | 1016.1 hPa | 0 mm | - | - | - |
| 1777731127 | 10° C | 89% | 1015.9 hPa | 0 mm | - | - | - |
| 1777730226 | 10° C | 89% | 1015.8 hPa | 0 mm | - | - | - |
| 1777729326 | 10° C | 89% | 1015.9 hPa | 0 mm | - | - | - |
| 1777728426 | 10° C | 89% | 1015.7 hPa | 0 mm | - | - | - |
| 1777727527 | 10° C | 88% | 1015.6 hPa | 0 mm | - | - | - |
| 1777726626 | 10° C | 87% | 1015.6 hPa | 0 mm | - | - | - |
| 1777725726 | 10° C | 87% | 1015.6 hPa | 0 mm | - | - | - |
| 1777724826 | 10.56° C | 87% | 1015.6 hPa | 0 mm | - | - | - |
| 1777723926 | 10.56° C | 87% | 1015.8 hPa | 0 mm | - | - | - |
| 1777723026 | 10.56° C | 86% | 1015.9 hPa | 0 mm | - | - | - |
| 1777722126 | 10.56° C | 87% | 1016.1 hPa | 0 mm | - | - | - |
| 1777721227 | 10° C | 87% | 1016 hPa | 0 mm | - | - | - |
| 1777720326 | 10° C | 88% | 1016 hPa | 0 mm | - | - | - |
| 1777719426 | 10° C | 89% | 1016.1 hPa | 0 mm | - | - | - |
| 1777718526 | 10° C | 90% | 1016.1 hPa | 0 mm | - | - | - |
| 1777717626 | 9.44° C | 90% | 1016 hPa | 0 mm | - | - | - |
* Rain latest hour (hover to see other rain measurements)
** Current wind speed in m/s (hover to see current wind gust speed)